Location: Aragoneses
(41.0275°N, 4.3847°W)
Time: 09:15:07
(UTC+00:00)

Tiangong - Pass Details

Date: 21 February 2026
Orbit: 381 x 391 km, 41.5° (Epoch: 7 March)

Event Time Altitude Azimuth Distance (km) Brightness Sun altitude
Rises 19:04:47 0° 278° (W) 2,258 3.6 -13.1°
Reaches altitude 10° 19:07:03 10° 265° (W) 1,400 2.2 -13.5°
Maximum altitude 19:09:44 26° 207° (SSW) 798 -0.2 -14.0°
Enters shadow 19:12:08 12° 151° (SSE) 1,291 0.2 -14.5°
